Regional Weather Roundup
Issued by NWS

Home | Current Version | Previous Version | Text Only | Print | Product List | Glossary Off
Versions: 1 2 3 4 5 6 7 8 9 10 11 12 13 14 15 16 17 18 19 20 21 22 23 24 25 26 27 28 29 30 31 32 33 34 35 36 37 38 39 40 41 42 43 44 45 46 47 48 49 50

441
ASUS43 KLMK 261810
RWRKY
KENTUCKY REGIONAL WEATHER ROUNDUP
NATIONAL WEATHER SERVICE LOUISVILLE KY
200 PM EDT TUE JUL 26 2016

NOTE "FAIR" INDICATES FEW OR NO CLOUDS BELOW 12,000 FEET
WITH NO SIGNIFICANT WEATHER AND/OR OBSTRUCTIONS TO VISIBILITY.

KYZ001>023-026-027-061>063-070>075-261900-
WESTERN AND SOUTH CENTRAL KENTUCKY

CITY           SKY/WX    TMP DP  RH WIND       PRES   REMARKS
PADUCAH        PTSUNNY   90  76  63 W5        29.99F HX 101
HENDERSON      PTSUNNY   88  75  66 CALM      29.99F HX  97
OWENSBORO      PTSUNNY   88  77  69 SW7       30.02F HAZE    HX 100
HOPKINSVILLE   SUNNY     90  74  58 VRB5      30.01F HX  99
BOWLING GREEN  MOSUNNY   92  74  55 W9        30.01F HX 101
GLASGOW        MOSUNNY   92  73  54 SW7       30.02F HX 100
$$

KYZ024-025-028>034-038-045-046-053-261900-
NORTH CENTRAL KENTUCKY

CITY           SKY/WX    TMP DP  RH WIND       PRES   REMARKS
LOUISVILLE/SDF PTSUNNY   90  72  55 SW5       30.00F HX  97
LOUISVILLE/LOU MOSUNNY   91  71  51 W8        30.01F HX  97
FORT KNOX      MOSUNNY   88  74  65 W10       30.01F HX  96
$$

KYZ035>037-039>044-047>052-055>060-089>105-261900-
NORTHEAST KENTUCKY

CITY           SKY/WX    TMP DP  RH WIND       PRES   REMARKS
LEXINGTON      MOSUNNY   90  73  57 W8        30.03F HX  98
COVINGTON      TSTM      73  73 100 N5        30.05R FOG
FRANKFORT      SUNNY     89  74  60 VRB5      30.00F HX  98
$$

KYZ054-064>069-076>088-106>120-261900-
SOUTHEAST KENTUCKY

CITY           SKY/WX    TMP DP  RH WIND       PRES   REMARKS
JACKSON        PTSUNNY   86  72  62 N3        30.07F HX  92
LONDON         MOSUNNY   90  69  50 VRB7      30.06F HX  94
SOMERSET       SUNNY     88  68  51 CALM      30.05F HX  91
MIDDLESBORO    PTSUNNY   87  74  66 NE3       30.07S HX  95
MONTICELLO     MOCLDY   N/A N/A N/A W8        30.06F
$$





USA.gov is the U.S. government's official web portal to all federal, state and local government web resources and services.